Zurück zum Katalog

ASTROCAST-0404

AktivKommunikationSSO
NORAD 55112·PAYLOAD·🇨🇭 Switzerland

Gestartet Jan 3, 2023 von Cape Canaveral Space Force Station

Loading…

Nächste Überflüge (nächste 24 Stunden)

TLE

AktuellSource: Space-Track

Epoche: Sep 13, 2026, 19:27 UTC

1 55112U 23001DH  26256.81078182  .00017460  00000-0  60246-3 0  9995
2 55112  97.5660 352.4045 0007063  44.2838 315.8966 15.30016452158073

Verfolge ASTROCAST-0404 in Echtzeit mit AllMySat

Download on the App Store